K1UTS Weather Reports


time (UTC)temp
F
wind
direction
speed
knots
gust
knots
rain 1hr
in
rain 24hr
in
rain mn
in
humidity
%
barometer
mb
20260507211557 60 246 0.9 3.5 0.00 0.00 0.00 35 1002.7
20260507210050 61 5 1.7 7.0 0.00 0.00 0.00 35 1002.4
20260507204556 61 330 0.0 4.3 0.00 0.00 0.00 33 1002.6
20260507203049 62 144 0.9 4.3 0.00 0.00 0.00 36 1002.5
20260507201600 62 269 1.7 5.2 0.00 0.00 0.00 34 1002.5
20260507200052 62 313 0.9 6.1 0.00 0.00 0.00 35 1002.5
20260507194550 63 31 0.0 4.3 0.00 0.00 0.00 31 1002.7
20260507193043 64 22 0.9 6.1 0.00 0.00 0.00 31 1002.8
20260507191554 63 313 1.7 3.5 0.00 0.00 0.00 30 1002.9
20260507190041 63 201 0.0 5.2 0.00 0.00 0.00 29 1003.1
20260507184548 65 302 0.9 3.5 0.00 0.00 0.00 30 1003.2
20260507183044 65 84 0.9 7.0 0.00 0.00 0.00 33 1003.3
20260507181540 66 145 0.9 3.5 0.00 0.00 0.00 33 1003.4
20260507180038 65 32 0.9 3.5 0.00 0.00 0.00 33 1003.4
20260507174536 65 153 1.7 3.5 0.00 0.00 0.00 32 1003.5
20260507173034 65 205 1.7 3.5 0.00 0.00 0.00 32 1003.2
20260507171531 65 31 0.9 3.5 0.00 0.00 0.00 34 1003.4
20260507170028 63 329 1.7 7.0 0.00 0.00 0.00 36 1003.8
20260507164527 62 346 0.9 5.2 0.00 0.00 0.00 41 1004.0
20260507163024 62 195 1.7 5.2 0.00 0.00 0.00 42 1004.0
20260507161623 62 335 0.9 3.5 0.00 0.00 0.00 45 1004.2
20260507160029 63 41 0.9 5.2 0.00 0.00 0.00 50 1004.3
20260507154519 61 223 0.9 4.3 0.00 0.00 0.00 47 1004.4
20260507153015 60 252 0.0 2.6 0.00 0.00 0.00 52 1004.3
20260507151514 61 201 0.9 3.5 0.00 0.00 0.00 53 1004.5
20260507150013 59 340 0.0 4.3 0.00 0.00 0.00 59 1004.7
20260507144511 59 190 0.9 4.3 0.00 0.00 0.00 60 1004.8
20260507143017 59 190 0.0 2.6 0.00 0.00 0.00 61 1004.9
20260507141507 58 68 0.0 2.6 0.00 0.00 0.00 61 1004.9
20260507140006 58 159 1.7 4.3 0.00 0.00 0.00 63 1004.9
20260507134505 57 277 0.9 2.6 0.00 0.00 0.00 64 1004.9
20260507133003 56 115 0.0 2.6 0.00 0.00 0.00 67 1004.9
20260507131503 55 5 0.0 3.5 0.00 0.00 0.00 72 1005.2
20260507130059 54 340 0.9 2.6 0.00 0.00 0.00 77 1005.3
20260507124558 52 348 0.9 4.3 0.00 0.00 0.00 83 1005.4
20260507123111 51 12 0.0 1.7 0.00 0.00 0.00 89 1005.4
20260507121555 49 250 0.0 0.9 0.00 0.00 0.00 91 1005.5
20260507120054 49 121 0.0 1.7 0.00 0.00 0.00 92 1005.5
20260507114557 48 187 0.0 0.9 0.00 0.00 0.00 92 1005.4
20260507113052 48 187 0.0 0.0 0.00 0.00 0.00 92 1005.4
20260507111551 47 187 0.0 1.7 0.00 0.00 0.00 92 1005.3
20260507110052 47 188 0.0 0.0 0.00 0.00 0.00 92 1005.1
20260507104557 47 187 0.0 0.9 0.00 0.00 0.00 92 1005.3
20260507103047 47 187 0.0 0.0 0.00 0.00 0.00 92 1004.6
20260507101547 48 187 0.0 1.7 0.00 0.00 0.00 92 1004.6
20260507100054 48 140 0.0 0.9 0.00 0.00 0.00 91 1004.6
20260507094547 48 140 0.0 0.9 0.00 0.00 0.00 91 1004.2
20260507093043 48 140 0.0 1.7 0.00 0.00 0.00 91 1004.5
20260507091542 48 236 0.0 0.9 0.00 0.00 0.00 91 1004.5
20260507090049 49 236 0.0 0.9 0.00 0.00 0.00 91 1005.1
20260507084545 49 250 0.0 3.5 0.00 0.00 0.00 92 1004.8
20260507083035 50 237 0.0 0.0 0.00 0.00 0.00 92 1004.6
20260507081533 50 237 0.0 0.0 0.00 0.00 0.00 92 1004.3
20260507080030 50 237 0.0 1.7 0.00 0.00 0.00 92 1004.3
20260507074528 51 238 0.0 1.7 0.00 0.00 0.00 92 1004.6
20260507073027 51 275 0.0 1.7 0.00 0.00 0.00 92 1004.6
20260507071528 51 326 0.0 1.7 0.00 0.00 0.00 92 1003.8
20260507070023 52 337 0.0 0.0 0.00 0.00 0.00 92 1003.8
20260507064533 52 337 0.0 0.0 0.00 0.00 0.00 92 1003.5
20260507063020 52 337 0.0 0.0 0.00 0.00 0.00 92 1003.7
20260507061517 53 337 0.0 0.0 0.00 0.00 0.00 92 1003.7
20260507060014 53 337 0.0 1.7 0.00 0.00 0.00 92 1003.7
20260507054511 54 304 0.0 0.9 0.00 0.00 0.00 92 1003.7
20260507053009 55 279 0.0 0.9 0.00 0.00 0.00 93 1004.0
20260507051508 55 224 0.0 0.9 0.00 0.00 0.00 92 1004.1
20260507050107 55 224 0.0 0.9 0.00 0.00 0.00 93 1004.0
20260507044503 56 250 0.0 0.9 0.00 0.00 0.00 93 1004.1
20260507043100 56 226 0.0 1.7 0.00 0.00 0.00 93 1003.8
20260507041559 57 5 0.0 1.7 0.00 0.00 0.00 93 1003.8
20260507040054 58 242 0.0 2.6 0.00 0.00 0.00 93 1003.9
20260507034554 58 152 0.0 1.7 0.00 0.00 0.00 93 1003.6
20260507033052 58 299 0.0 1.7 0.00 0.00 0.00 93 1003.2
20260507031552 58 174 0.0 1.7 0.00 0.00 0.00 93 1003.1
20260507030052 58 174 0.0 2.6 0.00 0.00 0.00 93 1002.8
20260507024551 58 62 0.0 1.7 0.00 0.00 0.00 93 1002.8
20260507023049 58 177 0.9 7.0 0.00 0.00 0.00 93 1002.7
20260507021549 58 231 0.9 3.5 0.00 0.00 0.00 93 1002.7
20260507014554 58 190 0.9 3.5 0.00 0.00 0.00 93 1002.7
20260507013047 58 119 0.9 4.3 0.00 0.00 0.00 93 1002.7
20260507011547 58 133 1.7 4.3 0.00 0.00 0.00 93 1002.7
20260507010059 58 311 0.0 7.0 0.00 0.00 0.00 92 1002.8
20260507004546 58 234 0.9 5.2 0.00 0.00 0.00 92 1002.8
20260507003044 59 241 0.9 6.1 0.00 0.00 0.00 92 1002.8
20260507001547 59 186 1.7 5.2 0.00 0.00 0.00 92 1002.6
20260507000043 59 207 1.7 6.1 0.00 0.00 0.00 92 1002.6
20260506234542 59 182 0.0 4.3 0.00 0.00 0.00 92 1002.5
20260506233041 59 217 2.6 6.1 0.00 0.00 0.00 92 1002.4
20260506231555 59 194 0.0 4.3 0.00 0.00 0.00 92 1002.3
20260506230053 59 185 2.6 6.1 0.00 0.00 0.00 91 1002.5
20260506224540 59 194 0.9 4.3 0.00 0.00 0.00 91 1002.6
20260506223038 59 200 0.9 7.8 0.00 0.00 0.00 91 1002.6
20260506221540 59 119 1.7 8.7 0.00 0.00 0.00 91 1002.7
20260506220038 60 165 2.6 8.7 0.00 0.00 0.00 91 1002.8
20260506214537 59 162 0.9 7.0 0.00 0.00 0.00 91 1002.9
20260506213033 60 201 2.6 7.0 0.00 0.00 0.00 90 1003.1